When you browse on this site, cookies collect data to enhance your experience and personalize the content and advertising you see.
Visit our Privacy Policy to learn more. By continuing to use the site, you agree to this use of cookies and data.
  • In Schweiz
  • Länderverzeichnis
  • Für 7 Tage
  • Wassertemperatur
  • Satellitenkarten
  • Wetterkarte
  • Widgets
  • user-avatar
    Anmelden

    Stündliche Wetter Udong

    Heute, 12 Dezember, Mittwoch

    Zeit Temperatur Niederschläge Wind Luftdruck Luftfeuchtigkeit
    00:00 +28°C° 0.1 mm 1 m/S 757 mmHg 81%
    01:00 +27°C° 0 mm 1 m/S 757 mmHg 83%
    02:00 +27°C° 0 mm 1 m/S 757 mmHg 84%
    03:00 +27°C° 0 mm 2 m/S 757 mmHg 85%
    04:00 +26°C° 0 mm 2 m/S 757 mmHg 85%
    05:00 +26°C° 0 mm 2 m/S 757 mmHg 85%
    06:00 +26°C° 0 mm 2 m/S 758 mmHg 85%
    07:00 +26°C° 0 mm 3 m/S 758 mmHg 84%
    08:00 +27°C° 0 mm 3 m/S 758 mmHg 78%
    09:00 +29°C° 0 mm 4 m/S 758 mmHg 72%
    10:00 +30°C° 0 mm 5 m/S 758 mmHg 66%
    11:00 +32°C° 0 mm 4 m/S 758 mmHg 62%
    12:00 +34°C° 0 mm 4 m/S 757 mmHg 58%
    13:00 +35°C° 0 mm 4 m/S 757 mmHg 53%
    14:00 +35°C° 0 mm 3 m/S 756 mmHg 53%
    15:00 +35°C° 0 mm 3 m/S 756 mmHg 53%
    16:00 +36°C° 0 mm 2 m/S 755 mmHg 52%
    17:00 +34°C° 0 mm 2 m/S 756 mmHg 56%
    18:00 +32°C° 0 mm 1 m/S 756 mmHg 59%
    19:00 +31°C° 0 mm 1 m/S 756 mmHg 63%
    20:00 +30°C° 0.1 mm 2 m/S 756 mmHg 65%
    21:00 +29°C° 0.1 mm 2 m/S 757 mmHg 68%
    22:00 +29°C° 0.1 mm 3 m/S 757 mmHg 70%
    23:00 +28°C° 0.1 mm 3 m/S 757 mmHg 71%

    Morgen, 13 Dezember, Donnerstag

    Zeit Temperatur Niederschläge Wind Luftdruck Luftfeuchtigkeit
    00:00 +28°C° 0.1 mm 3 m/S 758 mmHg 73%
    01:00 +27°C° 0.1 mm 3 m/S 758 mmHg 74%
    02:00 +27°C° 0 mm 3 m/S 758 mmHg 75%
    03:00 +26°C° 0 mm 3 m/S 757 mmHg 76%
    04:00 +26°C° 0 mm 2 m/S 757 mmHg 77%
    05:00 +26°C° 0 mm 3 m/S 758 mmHg 78%
    06:00 +25°C° 0 mm 3 m/S 758 mmHg 79%
    07:00 +25°C° 0 mm 3 m/S 758 mmHg 79%
    08:00 +27°C° 0 mm 4 m/S 758 mmHg 73%
    09:00 +29°C° 0 mm 5 m/S 759 mmHg 66%
    10:00 +32°C° 0 mm 6 m/S 759 mmHg 59%
    11:00 +33°C° 0 mm 6 m/S 758 mmHg 57%
    12:00 +34°C° 0 mm 6 m/S 758 mmHg 54%
    13:00 +35°C° 0 mm 5 m/S 757 mmHg 52%
    14:00 +34°C° 0 mm 5 m/S 757 mmHg 55%
    15:00 +34°C° 0 mm 4 m/S 756 mmHg 58%
    16:00 +33°C° 0 mm 3 m/S 756 mmHg 61%
    17:00 +33°C° 0 mm 4 m/S 756 mmHg 62%
    18:00 +32°C° 0 mm 4 m/S 756 mmHg 63%
    19:00 +30°C° 0 mm 4 m/S 757 mmHg 63%
    20:00 +29°C° 0 mm 4 m/S 757 mmHg 64%
    21:00 +29°C° 0 mm 4 m/S 758 mmHg 65%
    22:00 +28°C° 0 mm 5 m/S 758 mmHg 65%
    23:00 +28°C° 0 mm 5 m/S 758 mmHg 66%

    übermorgen, 14 Dezember, Freitag

    Zeit Temperatur Niederschläge Wind Luftdruck Luftfeuchtigkeit
    00:00 +28°C° 0 mm 5 m/S 758 mmHg 67%
    01:00 +27°C° 0 mm 5 m/S 758 mmHg 67%
    02:00 +27°C° 0 mm 4 m/S 758 mmHg 69%
    03:00 +26°C° 0 mm 4 m/S 758 mmHg 71%
    04:00 +26°C° 0 mm 4 m/S 757 mmHg 72%
    05:00 +26°C° 0 mm 4 m/S 758 mmHg 74%
    06:00 +26°C° 0 mm 4 m/S 758 mmHg 75%
    07:00 +26°C° 0 mm 4 m/S 758 mmHg 77%
    08:00 +27°C° 0 mm 5 m/S 759 mmHg 72%
    09:00 +29°C° 0 mm 6 m/S 759 mmHg 66%
    10:00 +32°C° 0 mm 6 m/S 759 mmHg 61%
    11:00 +33°C° 0 mm 6 m/S 758 mmHg 59%
    12:00 +34°C° 0 mm 6 m/S 757 mmHg 56%
    13:00 +35°C° 0 mm 6 m/S 757 mmHg 54%
    14:00 +35°C° 0 mm 5 m/S 756 mmHg 55%
    15:00 +34°C° 0 mm 4 m/S 755 mmHg 57%
    16:00 +34°C° 0 mm 3 m/S 754 mmHg 58%
    17:00 +33°C° 0 mm 3 m/S 755 mmHg 60%
    18:00 +31°C° 0 mm 3 m/S 756 mmHg 61%
    19:00 +30°C° 0 mm 3 m/S 756 mmHg 63%
    20:00 +30°C° 0 mm 4 m/S 757 mmHg 64%
    21:00 +29°C° 0 mm 4 m/S 757 mmHg 64%
    22:00 +28°C° 0 mm 4 m/S 758 mmHg 65%
    23:00 +28°C° 0 mm 4 m/S 758 mmHg 65%

    15 Dezember, Samstag

    Zeit Temperatur Niederschläge Wind Luftdruck Luftfeuchtigkeit
    00:00 +27°C° 0 mm 4 m/S 758 mmHg 66%
    01:00 +27°C° 0 mm 4 m/S 757 mmHg 67%
    02:00 +27°C° 0 mm 4 m/S 757 mmHg 69%
    03:00 +26°C° 0 mm 4 m/S 757 mmHg 70%
    04:00 +26°C° 0 mm 3 m/S 756 mmHg 72%
    05:00 +26°C° 0 mm 3 m/S 757 mmHg 74%
    06:00 +26°C° 0 mm 3 m/S 757 mmHg 75%
    07:00 +26°C° 0 mm 3 m/S 758 mmHg 77%
    08:00 +28°C° 0 mm 4 m/S 758 mmHg 72%
    09:00 +29°C° 0 mm 5 m/S 759 mmHg 67%
    10:00 +32°C° 0 mm 6 m/S 759 mmHg 61%
    11:00 +32°C° 0.4 mm 6 m/S 758 mmHg 61%
    12:00 +33°C° 0.4 mm 6 m/S 757 mmHg 61%
    13:00 +33°C° 0.4 mm 5 m/S 756 mmHg 61%
    14:00 +33°C° 0.8 mm 5 m/S 756 mmHg 62%
    15:00 +33°C° 0.8 mm 5 m/S 756 mmHg 63%
    16:00 +33°C° 0.8 mm 5 m/S 755 mmHg 63%
    17:00 +30°C° 0.6 mm 4 m/S 756 mmHg 69%
    18:00 +29°C° 0.6 mm 4 m/S 756 mmHg 74%
    19:00 +28°C° 0.6 mm 3 m/S 757 mmHg 80%
    20:00 +27°C° 0 mm 3 m/S 757 mmHg 81%
    21:00 +27°C° 0 mm 3 m/S 758 mmHg 83%
    22:00 +26°C° 0 mm 3 m/S 758 mmHg 84%
    23:00 +26°C° 0 mm 3 m/S 758 mmHg 85%

    16 Dezember, Sonntag

    Zeit Temperatur Niederschläge Wind Luftdruck Luftfeuchtigkeit
    00:00 +26°C° 0 mm 3 m/S 758 mmHg 85%
    01:00 +26°C° 0 mm 3 m/S 757 mmHg 86%
    02:00 +26°C° 0 mm 3 m/S 757 mmHg 86%
    03:00 +26°C° 0 mm 3 m/S 757 mmHg 86%
    04:00 +26°C° 0 mm 3 m/S 757 mmHg 86%
    05:00 +26°C° 0 mm 3 m/S 758 mmHg 85%
    06:00 +26°C° 0 mm 3 m/S 758 mmHg 85%
    07:00 +26°C° 0 mm 3 m/S 759 mmHg 84%
    08:00 +27°C° 0 mm 4 m/S 759 mmHg 77%
    09:00 +29°C° 0 mm 5 m/S 759 mmHg 71%
    10:00 +32°C° 0 mm 6 m/S 759 mmHg 64%
    11:00 +33°C° 0 mm 6 m/S 758 mmHg 61%
    12:00 +34°C° 0 mm 5 m/S 757 mmHg 58%
    13:00 +35°C° 0 mm 5 m/S 756 mmHg 55%
    14:00 +35°C° 0 mm 4 m/S 756 mmHg 55%
    15:00 +35°C° 0 mm 4 m/S 755 mmHg 54%
    16:00 +36°C° 0 mm 3 m/S 755 mmHg 54%
    17:00 +34°C° 0.1 mm 3 m/S 755 mmHg 58%
    18:00 +33°C° 0.1 mm 3 m/S 756 mmHg 61%
    19:00 +31°C° 0.1 mm 3 m/S 757 mmHg 65%
    20:00 +30°C° 0.2 mm 3 m/S 757 mmHg 66%
    21:00 +29°C° 0.2 mm 3 m/S 757 mmHg 67%
    22:00 +28°C° 0.2 mm 4 m/S 758 mmHg 69%
    23:00 +28°C° 0 mm 3 m/S 758 mmHg 70%

    17 Dezember, Montag

    Zeit Temperatur Niederschläge Wind Luftdruck Luftfeuchtigkeit
    00:00 +27°C° 0 mm 3 m/S 758 mmHg 71%
    01:00 +27°C° 0 mm 3 m/S 757 mmHg 72%
    02:00 +26°C° 0 mm 3 m/S 757 mmHg 73%
    03:00 +26°C° 0 mm 3 m/S 757 mmHg 74%
    04:00 +26°C° 0 mm 3 m/S 757 mmHg 74%
    05:00 +26°C° 0 mm 3 m/S 757 mmHg 75%
    06:00 +26°C° 0 mm 3 m/S 758 mmHg 76%
    07:00 +26°C° 0 mm 3 m/S 758 mmHg 77%
    08:00 +27°C° 0 mm 4 m/S 759 mmHg 71%
    09:00 +29°C° 0 mm 5 m/S 759 mmHg 65%
    10:00 +32°C° 0 mm 6 m/S 759 mmHg 60%
    11:00 +33°C° 0 mm 6 m/S 758 mmHg 57%
    12:00 +34°C° 0 mm 6 m/S 757 mmHg 54%
    13:00 +35°C° 0 mm 5 m/S 757 mmHg 51%
    14:00 +35°C° 0 mm 5 m/S 756 mmHg 51%
    15:00 +35°C° 0 mm 4 m/S 756 mmHg 51%
    16:00 +35°C° 0 mm 4 m/S 755 mmHg 51%
    17:00 +33°C° 0 mm 3 m/S 756 mmHg 54%
    18:00 +31°C° 0 mm 3 m/S 756 mmHg 57%
    19:00 +30°C° 0 mm 2 m/S 757 mmHg 60%
    20:00 +29°C° 0 mm 3 m/S 757 mmHg 60%
    21:00 +28°C° 0 mm 3 m/S 757 mmHg 59%
    22:00 +28°C° 0 mm 4 m/S 758 mmHg 59%
    23:00 +27°C° 0 mm 4 m/S 758 mmHg 60%
    Mehr zeigen